カタログに戻る

CZ-6A DEB

運用中PO
NORAD 61168·DEBRIS·🇨🇳 China

打ち上げ Aug 6, 2024 から Taiyuan Satellite Launch Center

Loading…

次のパス (今後24時間)

TLE

最新Source: Space-Track

元期: Sep 13, 2026, 05:45 UTC

1 61168U 24140RN  26256.23962578  .00107433  00000-0  38167-2 0  9991
2 61168  88.1434 171.8270 0025511 166.6716 193.5213 15.28282384111623

AllMySatでCZ-6A DEBをリアルタイム追跡

Download on the App Store